Location: Consuma
(43.7833°N, 11.5833°E)
Time: 23:26:09
(UTC+00:00)

Cosmos 1484 Rocket - Pass Details

Date: 17 February 2020
Orbit: 506 x 559 km, 97.4° (Epoch: 05 April)

Event Time Altitude Azimuth Distance (km) Brightness Sun altitude
Rises 03:36:29 0° 21° (NNE) 2,714 6.8 -28.4°
Reaches altitude 10° 03:38:46 10° 31° (NNE) 1,825 5.9 -28.0°
Maximum altitude 03:42:21 33° 97° (E) 945 4.5 -27.3°
Enters shadow 03:45:17 14° 157° (SSE) 1,589 5.3 -26.8°
